DELTA 1 DEB, 2224

Orbit data source: Space-Track

DELTA 1 DEB, 2224 is space debris in SSO originally from a launch on Mon, 28 Feb 1966 UTC launched from the Air Force Eastern Test Range (AFETR). Debris objects in space refer to the collection of defunct objects orbiting the Earth. Examples of debris include non-operational satellites, rocket bodies, and fragments generated from explosions, collisions, or faulty payload assembly.

Loading next visibility...
Identifier
2224, 1966-016D
Orbit
SSO
Last TLE update
1 day ago
Origin
Manufacturer
Unknown
Mission
Spacecraft
Bus & Motor
Unknown
Mass
1 kg wet, 1 kg dry
Launch date (UTC)
1966-02-28 (59 years ago)
Launch vehicle
Unknown
Launch site
Air Force Eastern Test Range (AFETR)
Object type
Payload
Rocket body
Debris
Shape & HBR
Cyl + 1 Cable, 3.5 m
Radar Cross Section
3.500 m², Small (<0.1 m²)

Expand to show TLE details & history

TLE from 1 day ago
0 DELTA 1 DEB
1 02224U 66016D   25181.74395759 -.00000006  00000-0  21543-3 0  9990
2 02224 101.1319 118.1819 0137389 197.9455 229.2485 12.52158478701911
Epoch: 2025-06-30T17:51Z
TLE epoch observation values (Epoch: 2025-06-30T17:51:17.935Z)
Latitude
63.78155°
Longitude
-92.12188°
Altitude
1,537.412 km
Speed
7.071 km/s
True Right ascension
06h 19m 00s
True Declination
63° 39' 30"
Sunlit
Object was in daylight at epoch
Visualization orbit readout
Latitude
-36.40032°
Longitude
103.93661°
Altitude
1,368.325 km
Speed
7.22 km/s
Apparent Right ascension
18h 28m 53s
Apparent Declination
-38° 50' 10"
Sunlit
Object is in full shadow
Visualization observer readout
Local Sidereal Time
05:19:14
Azimuth
269.002° W
Elevation
-76.517°
Doppler factor
1
Orbital elements
Apogee altitude
1,560.579 km
Perigee altitude
1,345.396 km
Semi-major axis
7,831.125 km
Eccentricity
0.01374
Inclination
101.1319°
RAAN
118.1819°
Arg. of periapsis
197.9455°
True anomaly
Unknown
Mean anomaly
229.2485°
Eccentric anomaly
Unknown
Mean motion
3.13189 °/min
Orbital period
114.95 mins
BSTAR
0.00021543
Loading maneuver chart data...
Loading SW <> Apogee altitude chart data...
Loading historical data...
Loading historical data...
Loading historical data...
Loading historical data...
Loading historical data...
Loading historical data...
Loading historical data...
Other satellites on launch #16 in the year 1966 (1966-02-28 UTC)

DELTA 1 DEB Visibility forecast

Observer location: undefined°, undefined°

Span
Click to sort rows by Start time (UTC) header in descending order
Start Az.
Max El. time (UTC)
Max El. Az.
Max El.
End time (UTC)
End Az.
15 mins2025-07-01 18:32:36.515Z128.47° SE2025-07-01 18:40:36.515Z55.405° ENE34.655°2025-07-01 18:47:36.515Z356.971° N
14 mins2025-07-01 20:26:36.515Z195.847° SSW2025-07-01 20:32:36.515Z253.525° W35.388°2025-07-01 20:40:36.515Z329.502° NNW
14 mins2025-07-02 08:29:36.515Z22.881° NE2025-07-02 08:35:36.515Z81.87° E43.176°2025-07-02 08:43:36.515Z188.417° SSW
10 mins2025-07-02 10:23:36.515Z346.851° N2025-07-02 10:28:36.515Z300.684° NW23.569°2025-07-02 10:33:36.515Z257.184° W
|